Вернуться в каталог

ARIANE 44L DEB

АктивенHEO
NORAD 28575·DEBRIS·🇫🇷 France

Запущен Oct 29, 1991 с Guiana Space Centre

Loading…

Ближайшие Пролёты (ближайшие 24 часа)

TLE

СвежийSource: Space-Track

Эпоха: Sep 14, 2026, 19:10 UTC

1 28575U 91075M   26257.79884771 -.00000246  00000-0 -65509-2 0  9993
2 28575   6.3431 330.5867 6588678 115.8748 314.1550  2.82845391253012

Отслеживайте ARIANE 44L DEB в реальном времени с AllMySat

Download on the App Store